Location: Nakusp
(50.2330°N, 117.8000°W)
Time: 20:39:22
(UTC-07:00)

Cosmos 1939 Rocket - Visible Passes

Search period start: 25 September 2016 00:00
Search period end: 05 October 2016 00:00
Orbit: 532 x 589 km, 97.6° (Epoch: 25 September)

Date Brightness Start Highest point End Pass type
(mag) Time Alt. Az. Time Alt. Az. Time Alt. Az.
25 Sep 3.1 20:36:32 44° E 20:36:53 46° ENE 20:40:44 10° N visible
25 Sep 5.3 22:12:28 19° W 22:12:28 19° W 22:15:01 10° NW visible
26 Sep 3.2 20:35:39 44° E 20:35:51 45° ENE 20:39:40 10° N visible
26 Sep 5.3 22:11:35 19° W 22:11:35 19° W 22:14:00 10° NW visible
27 Sep 3.2 20:34:46 43° ENE 20:34:48 43° ENE 20:38:36 10° N visible
27 Sep 5.3 22:10:42 19° WNW 22:10:42 19° WNW 22:12:58 10° NW visible
28 Sep 3.3 20:33:52 42° ENE 20:33:52 42° ENE 20:37:33 10° N visible
28 Sep 5.4 22:09:49 19° WNW 22:09:49 19° WNW 22:11:57 10° NW visible
29 Sep 3.4 20:32:59 41° ENE 20:32:59 41° ENE 20:36:29 10° N visible
29 Sep 5.4 22:08:56 19° WNW 22:08:56 19° WNW 22:10:55 10° NW visible
30 Sep 3.5 20:32:06 39° NE 20:32:06 39° NE 20:35:25 10° N visible
30 Sep 5.4 22:08:02 19° WNW 22:08:02 19° WNW 22:09:53 10° NW visible
01 Oct 3.6 20:31:12 37° NE 20:31:12 37° NE 20:34:21 10° N visible
01 Oct 5.5 22:07:08 18° WNW 22:07:08 18° WNW 22:08:51 10° NW visible
02 Oct 3.7 20:30:19 35° NE 20:30:19 35° NE 20:33:16 10° N visible
02 Oct 5.5 22:06:14 18° WNW 22:06:14 18° WNW 22:07:49 10° NW visible
03 Oct 3.8 20:29:24 33° NE 20:29:24 33° NE 20:32:12 10° N visible
03 Oct 5.6 22:05:21 17° WNW 22:05:21 17° WNW 22:06:47 10° NW visible
04 Oct 3.9 20:28:30 31° NE 20:28:30 31° NE 20:31:07 10° N visible
04 Oct 5.6 22:04:27 17° NW 22:04:27 17° NW 22:05:44 10° NW visible
